• In Switzerland
  • List of Countries
  • For 7 days
  • Water Temperature
  • Satellite Maps
  • Weather Map
  • Weather Widgets
  • user-avatar
    Login

    Hourly Weather Kinshasa

    Today, 19 February, Monday

    Time Temperature Precipitation Wind Pressure Humidity
    00:00 +26°C° 0 mm 1 mps 706 mmHg 71%
    01:00 +26°C° 0 mm 1 mps 706 mmHg 73%
    02:00 +25°C° 0.3 mm 1 mps 706 mmHg 75%
    03:00 +25°C° 0.3 mm 1 mps 706 mmHg 77%
    04:00 +24°C° 0.3 mm 1 mps 706 mmHg 79%
    05:00 +24°C° 0.2 mm 1 mps 706 mmHg 79%
    06:00 +24°C° 0.2 mm 1 mps 707 mmHg 80%
    07:00 +24°C° 0.2 mm 1 mps 707 mmHg 81%
    08:00 +27°C° 0.1 mm 1 mps 707 mmHg 70%
    09:00 +29°C° 0.1 mm 2 mps 708 mmHg 60%
    10:00 +32°C° 0.1 mm 2 mps 708 mmHg 50%
    11:00 +35°C° 0 mm 1 mps 708 mmHg 42%
    12:00 +37°C° 0 mm 1 mps 707 mmHg 35%
    13:00 +38°C° 0 mm 0 mps 707 mmHg 28%
    14:00 +37°C° 0 mm 0 mps 706 mmHg 30%
    15:00 +35°C° 0 mm 0 mps 705 mmHg 32%
    16:00 +33°C° 0 mm 0 mps 704 mmHg 34%
    17:00 +32°C° 0.1 mm 0 mps 704 mmHg 38%
    18:00 +30°C° 0.1 mm 0 mps 704 mmHg 43%
    19:00 +29°C° 0.1 mm 0 mps 704 mmHg 47%
    20:00 +28°C° 0.1 mm 0 mps 705 mmHg 52%
    21:00 +29°C° 0.1 mm 1 mps 705 mmHg 56%
    22:00 +28°C° 0.1 mm 1 mps 706 mmHg 61%
    23:00 +27°C° 0.1 mm 1 mps 705 mmHg 63%

    Tomorrow, 20 February, Tuesday

    Time Temperature Precipitation Wind Pressure Humidity
    00:00 +27°C° 0.1 mm 1 mps 705 mmHg 65%
    01:00 +26°C° 0.1 mm 1 mps 705 mmHg 68%
    02:00 +26°C° 0.1 mm 1 mps 705 mmHg 70%
    03:00 +26°C° 0.1 mm 1 mps 705 mmHg 72%
    04:00 +25°C° 0.1 mm 1 mps 705 mmHg 75%
    05:00 +25°C° 0.5 mm 1 mps 705 mmHg 78%
    06:00 +24°C° 0.5 mm 2 mps 706 mmHg 81%
    07:00 +24°C° 0.5 mm 2 mps 706 mmHg 84%
    08:00 +26°C° 0 mm 2 mps 707 mmHg 75%
    09:00 +29°C° 0 mm 2 mps 707 mmHg 65%
    10:00 +31°C° 0 mm 2 mps 708 mmHg 55%
    11:00 +35°C° 0 mm 2 mps 707 mmHg 46%
    12:00 +37°C° 0 mm 1 mps 706 mmHg 38%
    13:00 +40°C° 0 mm 1 mps 705 mmHg 29%
    14:00 +39°C° 0 mm 1 mps 705 mmHg 31%
    15:00 +37°C° 0 mm 1 mps 704 mmHg 33%
    16:00 +35°C° 0 mm 1 mps 703 mmHg 34%
    17:00 +34°C° 0 mm 1 mps 703 mmHg 39%
    18:00 +32°C° 0 mm 1 mps 703 mmHg 43%
    19:00 +31°C° 0 mm 1 mps 704 mmHg 47%
    20:00 +30°C° 0 mm 2 mps 704 mmHg 54%
    21:00 +29°C° 0 mm 2 mps 705 mmHg 60%
    22:00 +28°C° 0 mm 3 mps 705 mmHg 66%
    23:00 +27°C° 0.2 mm 2 mps 705 mmHg 71%

    Day after tomorrow, 21 February, Wednesday

    Time Temperature Precipitation Wind Pressure Humidity
    00:00 +26°C° 0.2 mm 2 mps 705 mmHg 77%
    01:00 +25°C° 0.2 mm 1 mps 705 mmHg 82%
    02:00 +25°C° 0.9 mm 1 mps 705 mmHg 85%
    03:00 +24°C° 0.9 mm 1 mps 705 mmHg 88%
    04:00 +24°C° 0.9 mm 1 mps 705 mmHg 90%
    05:00 +24°C° 0.2 mm 1 mps 705 mmHg 89%
    06:00 +24°C° 0.2 mm 2 mps 706 mmHg 88%
    07:00 +24°C° 0.2 mm 2 mps 706 mmHg 87%
    08:00 +26°C° 0 mm 2 mps 707 mmHg 78%
    09:00 +28°C° 0 mm 2 mps 707 mmHg 68%
    10:00 +30°C° 0 mm 3 mps 707 mmHg 58%
    11:00 +34°C° 0 mm 2 mps 707 mmHg 51%
    12:00 +36°C° 0 mm 2 mps 706 mmHg 43%
    13:00 +38°C° 0 mm 2 mps 705 mmHg 35%
    14:00 +37°C° 0 mm 2 mps 704 mmHg 35%
    15:00 +37°C° 0 mm 2 mps 703 mmHg 35%
    16:00 +36°C° 0 mm 2 mps 702 mmHg 35%
    17:00 +35°C° 0 mm 2 mps 703 mmHg 40%
    18:00 +34°C° 0 mm 2 mps 703 mmHg 44%
    19:00 +31°C° 0 mm 2 mps 704 mmHg 48%
    20:00 +30°C° 0.1 mm 2 mps 704 mmHg 55%
    21:00 +29°C° 0.1 mm 2 mps 704 mmHg 62%
    22:00 +27°C° 0.1 mm 3 mps 705 mmHg 69%
    23:00 +27°C° 0.4 mm 2 mps 705 mmHg 72%

    22 February, Thursday

    Time Temperature Precipitation Wind Pressure Humidity
    00:00 +26°C° 0.4 mm 2 mps 704 mmHg 76%
    01:00 +25°C° 0.4 mm 2 mps 704 mmHg 80%
    02:00 +25°C° 0.2 mm 2 mps 704 mmHg 82%
    03:00 +25°C° 0.2 mm 1 mps 704 mmHg 85%
    04:00 +24°C° 0.2 mm 1 mps 704 mmHg 87%
    05:00 +24°C° 0 mm 1 mps 705 mmHg 86%
    06:00 +24°C° 0 mm 1 mps 705 mmHg 85%
    07:00 +24°C° 0 mm 2 mps 706 mmHg 85%
    08:00 +26°C° 0 mm 2 mps 706 mmHg 76%
    09:00 +28°C° 0 mm 2 mps 707 mmHg 68%
    10:00 +30°C° 0 mm 2 mps 707 mmHg 59%
    11:00 +32°C° 0 mm 2 mps 706 mmHg 52%
    12:00 +34°C° 0 mm 2 mps 705 mmHg 45%
    13:00 +36°C° 0 mm 2 mps 705 mmHg 39%
    14:00 +36°C° 0 mm 2 mps 704 mmHg 39%
    15:00 +36°C° 0 mm 2 mps 703 mmHg 39%
    16:00 +34°C° 0 mm 1 mps 703 mmHg 39%
    17:00 +34°C° 0 mm 2 mps 703 mmHg 45%
    18:00 +31°C° 0 mm 2 mps 703 mmHg 51%
    19:00 +30°C° 0 mm 2 mps 704 mmHg 56%
    20:00 +29°C° 0 mm 2 mps 704 mmHg 60%
    21:00 +28°C° 0 mm 2 mps 704 mmHg 63%
    22:00 +27°C° 0 mm 2 mps 704 mmHg 67%
    23:00 +27°C° 0 mm 2 mps 704 mmHg 69%

    23 February, Friday

    Time Temperature Precipitation Wind Pressure Humidity
    00:00 +26°C° 0 mm 1 mps 704 mmHg 72%
    01:00 +26°C° 0 mm 1 mps 704 mmHg 74%
    02:00 +25°C° 0.1 mm 1 mps 704 mmHg 77%
    03:00 +25°C° 0.1 mm 1 mps 704 mmHg 80%
    04:00 +22°C° 0.1 mm 0 mps 703 mmHg 83%
    05:00 +24°C° 0.9 mm 1 mps 704 mmHg 85%
    06:00 +24°C° 0.9 mm 1 mps 705 mmHg 86%
    07:00 +24°C° 0.9 mm 1 mps 706 mmHg 88%
    08:00 +26°C° 0 mm 1 mps 706 mmHg 79%
    09:00 +28°C° 0 mm 1 mps 707 mmHg 70%
    10:00 +30°C° 0 mm 1 mps 707 mmHg 61%
    11:00 +32°C° 0 mm 1 mps 707 mmHg 55%
    12:00 +33°C° 0 mm 1 mps 706 mmHg 49%
    13:00 +35°C° 0 mm 1 mps 705 mmHg 43%
    14:00 +35°C° 0 mm 1 mps 704 mmHg 43%
    15:00 +34°C° 0 mm 1 mps 704 mmHg 42%
    16:00 +34°C° 0 mm 1 mps 703 mmHg 42%
    17:00 +33°C° 0 mm 1 mps 704 mmHg 47%
    18:00 +31°C° 0 mm 1 mps 704 mmHg 51%
    19:00 +30°C° 0 mm 1 mps 704 mmHg 56%
    20:00 +29°C° 0.2 mm 1 mps 704 mmHg 60%
    21:00 +28°C° 0.2 mm 1 mps 704 mmHg 64%
    22:00 +27°C° 0.2 mm 1 mps 705 mmHg 68%
    23:00 +27°C° 0 mm 1 mps 704 mmHg 70%

    24 February, Saturday

    Time Temperature Precipitation Wind Pressure Humidity
    00:00 +24°C° 0 mm 0 mps 704 mmHg 72%
    01:00 +24°C° 0 mm 0 mps 704 mmHg 74%
    02:00 +24°C° 0.6 mm 0 mps 704 mmHg 75%
    03:00 +25°C° 0.6 mm 1 mps 705 mmHg 77%
    04:00 +25°C° 0.6 mm 1 mps 705 mmHg 79%
    05:00 +25°C° 0.4 mm 1 mps 705 mmHg 81%
    06:00 +25°C° 0.4 mm 1 mps 706 mmHg 82%
    07:00 +25°C° 0.4 mm 1 mps 706 mmHg 84%
    08:00 +28°C° 0 mm 1 mps 707 mmHg 72%
    09:00 +31°C° 0 mm 1 mps 707 mmHg 59%
    10:00 +34°C° 0 mm 1 mps 708 mmHg 47%
    11:00 +35°C° 0 mm 1 mps 707 mmHg 42%
    12:00 +35°C° 0 mm 0 mps 706 mmHg 38%
    13:00 +36°C° 0 mm 0 mps 705 mmHg 34%
    14:00 +36°C° 0 mm 0 mps 705 mmHg 33%
    15:00 +36°C° 0 mm 0 mps 704 mmHg 32%
    16:00 +37°C° 0 mm 1 mps 704 mmHg 31%
    17:00 +35°C° 0 mm 1 mps 704 mmHg 36%
    18:00 +33°C° 0 mm 1 mps 704 mmHg 42%
    19:00 +31°C° 0 mm 1 mps 704 mmHg 47%
    20:00 +30°C° 0.4 mm 2 mps 704 mmHg 55%
    21:00 +29°C° 0.4 mm 2 mps 704 mmHg 62%
    22:00 +27°C° 0.4 mm 3 mps 705 mmHg 70%
    23:00 +27°C° 0.1 mm 2 mps 705 mmHg 73%
    Show more